VE1DX Weather Reports


time (UTC)temp
C
wind
direction
speed
KPH
gust
KPH
rain 1hr
cm
rain 24hr
cm
rain mn
cm
humidity
%
barometer
mb
20260507201516 11 0.0 0.0 0.00 2.08 2.08 94 1002.0
20260507201016 11 0.0 4.8 0.00 2.08 2.08 94 1002.1
20260507200516 11 0.0 1.6 0.00 2.08 2.08 94 1002.1
20260507200016 11 225 1.6 4.8 0.00 2.08 2.08 94 1002.2
20260507195516 11 225 1.6 6.4 0.00 2.08 2.08 94 1002.3
20260507195016 11 225 1.6 4.8 0.00 2.08 2.08 94 1002.2
20260507194516 10 0.0 0.0 0.00 2.08 2.08 94 1002.3
20260507194016 10 0.0 0.0 0.00 2.08 2.08 94 1002.4
20260507193516 10 0.0 0.0 0.00 2.08 2.08 94 1002.4
20260507193016 10 225 1.6 4.8 0.00 2.08 2.08 94 1002.6
20260507192516 9 0.0 1.6 0.00 2.08 2.08 94 1002.5
20260507192016 9 135 1.6 3.2 0.03 2.08 2.08 94 1002.2
20260507191516 9 0.0 3.2 0.03 2.08 2.08 94 1002.2
20260507191016 9 135 1.6 4.8 0.03 2.08 2.08 94 1002.3
20260507190515 8 135 3.2 6.4 0.03 2.08 2.08 94 1002.1
20260507190016 8 135 1.6 4.8 0.03 2.08 2.08 94 1002.2
20260507185516 8 113 1.6 3.2 0.03 2.08 2.08 94 1002.4
20260507185016 8 135 1.6 6.4 0.05 2.08 2.08 94 1002.5
20260507184516 9 113 1.6 8.0 0.05 2.08 2.08 94 1002.7
20260507184016 9 135 1.6 4.8 0.05 2.08 2.08 94 1002.5
20260507183516 9 225 1.6 4.8 0.05 2.08 2.08 94 1002.3
20260507183016 9 135 1.6 8.0 0.08 2.08 2.08 94 1002.0
20260507182516 9 158 3.2 8.0 0.13 2.08 2.08 94 1002.1
20260507182016 9 225 1.6 12.9 0.10 2.06 2.06 94 1002.2
20260507181516 9 158 1.6 6.4 0.10 2.06 2.06 94 1001.3
20260507181016 9 158 1.6 9.7 0.10 2.06 2.06 94 1001.1
20260507180516 8 135 3.2 6.4 0.10 2.06 2.06 94 1001.2
20260507180016 8 135 4.8 11.3 0.15 2.06 2.06 94 1001.4
20260507175516 8 135 3.2 8.0 0.15 2.06 2.06 94 1002.0
20260507175016 8 135 3.2 8.0 0.15 2.03 2.03 94 1002.3
20260507174516 8 113 1.6 6.4 0.15 2.03 2.03 94 1002.6
20260507174016 8 113 4.8 11.3 0.15 2.03 2.03 94 1002.8
20260507173515 8 158 3.2 6.4 0.15 2.03 2.03 94 1003.3
20260507173016 8 135 3.2 6.4 0.15 2.01 2.01 94 1003.8
20260507172516 8 158 3.2 6.4 0.10 1.96 1.96 94 1004.0
20260507172016 8 135 3.2 8.0 0.15 1.96 1.96 94 1003.7
20260507171516 9 135 3.2 9.7 0.18 1.96 1.96 94 1003.2
20260507171016 9 158 1.6 8.0 0.30 1.96 1.96 94 1003.4
20260507170516 9 135 3.2 8.0 0.43 1.96 1.96 94 1003.5
20260507170016 9 135 1.6 4.8 0.58 1.93 1.93 94 1003.6
20260507165515 9 135 1.6 4.8 0.76 1.91 1.91 94 1003.8
20260507165016 9 158 1.6 4.8 0.79 1.88 1.88 94 1003.9
20260507164516 9 0.0 4.8 0.89 1.88 1.88 94 1003.4
20260507164016 9 135 1.6 4.8 0.97 1.88 1.88 94 1003.4
20260507163516 9 0.0 1.6 1.04 1.85 1.85 94 1003.6
20260507163016 9 135 1.6 3.2 1.09 1.85 1.85 94 1003.6
20260507162516 9 158 1.6 4.8 1.09 1.85 1.85 94 1003.5
20260507162016 9 135 1.6 8.0 1.09 1.83 1.83 94 1003.4
20260507161516 9 113 1.6 4.8 1.07 1.78 1.78 94 1004.0
20260507161016 9 135 1.6 4.8 0.97 1.65 1.68 94 1004.6
20260507160516 9 135 1.6 4.8 0.81 1.52 1.52 94 1005.0
20260507160015 9 0.0 4.8 0.66 1.35 1.35 94 1004.8
20260507155516 9 0.0 1.6 0.48 1.14 1.14 94 1004.3
20260507155016 9 0.0 3.2 0.43 1.09 1.09 94 1004.3
20260507154516 9 113 1.6 4.8 0.36 0.99 0.99 94 1004.6
20260507154016 9 135 1.6 3.2 0.30 0.91 0.91 94 1004.3
20260507153516 9 203 1.6 8.0 0.20 0.81 0.81 94 1004.7
20260507153015 9 0.0 3.2 0.15 0.79 0.79 94 1004.7
20260507152516 9 135 1.6 4.8 0.15 0.76 0.76 94 1004.9
20260507152016 9 225 1.6 9.7 0.13 0.74 0.74 94 1005.3
20260507151516 9 135 1.6 11.3 0.10 0.71 0.71 94 1005.3
20260507151016 9 135 1.6 6.4 0.08 0.71 0.71 94 1004.9
20260507150516 9 135 1.6 12.9 0.10 0.71 0.71 94 1004.8
20260507150015 9 180 3.2 9.7 0.08 0.69 0.69 94 1004.9
20260507145516 9 135 3.2 16.1 0.08 0.66 0.66 94 1004.9
20260507145016 9 203 3.2 9.7 0.05 0.64 0.66 94 1005.1
20260507144516 9 135 3.2 11.3 0.05 0.64 0.64 94 1005.3
20260507144016 9 158 3.2 8.0 0.05 0.61 0.61 94 1005.3
20260507143516 9 158 3.2 9.7 0.05 0.61 0.61 94 1005.4
20260507143016 9 135 3.2 11.3 0.05 0.61 0.61 94 1005.4
20260507142516 9 158 3.2 12.9 0.05 0.61 0.61 94 1005.5
20260507142016 9 135 3.2 6.4 0.05 0.61 0.61 94 1005.6
20260507141516 9 135 4.8 19.3 0.05 0.61 0.61 94 1005.7
20260507141016 9 158 3.2 9.7 0.05 0.61 0.61 94 1005.3
20260507140515 9 135 4.8 11.3 0.05 0.61 0.61 94 1005.4
20260507140016 9 225 3.2 20.9 0.05 0.61 0.61 94 1005.8
20260507135515 9 135 4.8 14.5 0.03 0.58 0.58 94 1005.9
20260507135015 9 225 6.4 16.1 0.03 0.58 0.58 94 1005.9
20260507134515 9 158 4.8 20.9 0.03 0.58 0.58 94 1006.1
20260507134016 9 135 3.2 12.9 0.03 0.58 0.58 94 1006.1
20260507133516 9 158 3.2 11.3 0.03 0.58 0.58 94 1006.1
20260507133016 9 158 4.8 17.7 0.05 0.58 0.58 94 1006.1
20260507132516 9 113 3.2 11.3 0.05 0.58 0.58 94 1006.3
20260507132016 9 158 4.8 16.1 0.05 0.58 0.58 94 1006.3
20260507131516 9 158 3.2 14.5 0.05 0.58 0.58 94 1006.3
20260507131016 9 135 3.2 9.7 0.05 0.58 0.58 94 1006.3
20260507130516 9 135 4.8 12.9 0.03 0.56 0.56 94 1006.5
20260507130015 9 135 3.2 9.7 0.05 0.56 0.56 94 1006.7
20260507125516 9 158 4.8 11.3 0.05 0.56 0.56 94 1007.0
20260507125016 9 135 4.8 11.3 0.05 0.56 0.56 94 1007.2
20260507124516 9 158 4.8 17.7 0.08 0.56 0.56 94 1007.2
20260507124016 9 158 4.8 12.9 0.08 0.56 0.56 94 1007.3
20260507123516 9 158 3.2 11.3 0.10 0.56 0.56 94 1007.4
20260507123015 9 158 4.8 12.9 0.10 0.53 0.53 94 1007.5
20260507122516 9 158 4.8 12.9 0.10 0.53 0.53 94 1007.5
20260507122016 9 158 6.4 14.5 0.13 0.53 0.53 94 1007.4
20260507121516 9 158 4.8 16.1 0.15 0.53 0.53 94 1007.5
20260507121016 10 203 6.4 12.9 0.18 0.53 0.53 94 1007.3
20260507120516 10 203 4.8 12.9 0.23 0.53 0.53 94 1007.1
20260507120016 10 158 4.8 17.7 0.23 0.51 0.51 94 1007.3
20260507115516 10 158 3.2 12.9 0.25 0.51 0.51 94 1007.3
20260507115016 10 158 3.2 12.9 0.25 0.51 0.51 94 1007.4
20260507114516 9 180 3.2 11.3 0.23 0.48 0.48 94 1007.4
20260507114016 9 135 3.2 11.3 0.25 0.48 0.48 94 1007.7
20260507113516 9 180 4.8 14.5 0.23 0.46 0.46 94 1007.6
20260507113016 9 113 3.2 17.7 0.23 0.43 0.43 94 1007.6
20260507112516 9 158 3.2 9.7 0.23 0.43 0.43 94 1007.6
20260507112015 9 135 4.8 11.3 0.23 0.43 0.43 94 1007.6
20260507111516 9 135 3.2 9.7 0.18 0.38 0.38 94 1007.8
20260507111015 9 158 4.8 11.3 0.15 0.36 0.36 94 1007.9
20260507110515 10 135 4.8 12.9 0.13 0.33 0.33 94 1008.0
20260507110016 9 158 4.8 12.9 0.10 0.30 0.30 94 1008.1
20260507105515 9 135 4.8 11.3 0.05 0.25 0.25 94 1008.1
20260507105015 9 158 3.2 11.3 0.05 0.23 0.23 94 1008.0
20260507104516 9 135 3.2 8.0 0.05 0.23 0.23 93 1008.1
20260507104016 9 135 4.8 16.1 0.05 0.23 0.23 93 1008.1
20260507103516 9 135 3.2 9.7 0.13 0.23 0.23 94 1008.2
20260507103016 9 135 3.2 8.0 0.15 0.23 0.23 94 1008.2
20260507102516 9 158 4.8 12.9 0.15 0.20 0.20 93 1008.3
20260507102016 9 135 4.8 11.3 0.15 0.20 0.20 93 1008.4
20260507101516 8 135 4.8 14.5 0.15 0.20 0.20 93 1008.6
20260507101016 8 135 3.2 11.3 0.18 0.20 0.20 93 1008.5
20260507100516 8 135 3.2 9.7 0.18 0.20 0.20 93 1008.6
20260507100016 8 135 4.8 16.1 0.18 0.20 0.20 93 1008.7
20260507095516 8 158 4.8 11.3 0.20 0.20 0.20 93 1008.6
20260507095016 8 135 3.2 9.7 0.20 0.20 0.20 93 1008.6
20260507094516 8 158 1.6 8.0 0.18 0.18 0.18 92 1008.6
20260507094016 8 135 3.2 12.9 0.15 0.15 0.15 92 1008.7
20260507093517 8 135 3.2 8.0 0.10 0.10 0.10 92 1008.9
20260507093017 8 158 3.2 11.3 0.08 0.08 0.08 92 1008.5
20260507092516 8 158 3.2 9.7 0.05 0.05 0.05 91 1008.6
20260507092016 8 158 3.2 9.7 0.05 0.05 0.05 91 1008.5
20260507091517 8 135 1.6 6.4 0.05 0.05 0.05 91 1008.6
20260507091016 8 135 3.2 9.7 0.03 0.03 0.03 91 1008.6
20260507090516 8 135 3.2 8.0 0.03 0.03 0.03 90 1008.8
20260507090016 8 135 3.2 11.3 0.03 0.03 0.03 90 1008.7
20260507085517 8 135 3.2 6.4 0.00 0.00 0.00 90 1008.8
20260507085016 8 135 1.6 8.0 0.00 0.00 0.00 90 1008.9
20260507084516 8 0.0 4.8 0.00 0.00 0.00 90 1009.1
20260507084016 8 0.0 6.4 0.00 0.00 0.00 90 1009.0
20260507083516 8 135 1.6 4.8 0.00 0.00 0.00 90 1009.3
20260507083016 8 135 1.6 6.4 0.00 0.00 0.00 89 1009.3
20260507082516 8 135 1.6 3.2 0.00 0.00 0.00 89 1009.4
20260507082017 8 135 1.6 4.8 0.00 0.00 0.00 89 1009.6
20260507081536 8 158 3.2 8.0 0.00 0.00 0.00 88 1009.7
20260507081016 8 135 3.2 17.7 0.00 0.00 0.00 87 1009.7
20260507080516 8 135 3.2 11.3 0.00 0.00 0.00 87 1009.7
20260507080016 8 135 1.6 4.8 0.00 0.00 0.00 87 1009.7
20260507075516 8 158 1.6 6.4 0.00 0.00 0.00 87 1009.9
20260507075016 8 135 1.6 3.2 0.00 0.00 0.00 87 1009.8
20260507074516 8 135 1.6 4.8 0.00 0.00 0.00 87 1009.9
20260507074016 8 135 1.6 6.4 0.00 0.00 0.00 87 1010.1
20260507073516 8 113 1.6 8.0 0.00 0.00 0.00 87 1010.3
20260507073016 8 135 1.6 6.4 0.00 0.00 0.00 86 1010.2
20260507072516 8 180 3.2 8.0 0.00 0.00 0.00 86 1010.1
20260507072016 9 158 6.4 19.3 0.00 0.00 0.00 86 1010.1
20260507071516 8 113 3.2 12.9 0.00 0.00 0.00 86 1010.3
20260507071016 8 135 1.6 8.0 0.00 0.00 0.00 86 1010.0
20260507070516 9 135 3.2 4.8 0.00 0.00 0.00 86 1010.3
20260507070016 9 113 3.2 9.7 0.00 0.00 0.00 85 1010.4
20260507065516 9 158 1.6 6.4 0.00 0.00 0.00 85 1010.5
20260507065015 10 158 3.2 9.7 0.00 0.00 0.00 85 1010.5
20260507064516 10 135 3.2 8.0 0.00 0.00 0.00 86 1010.2
20260507064018 9 158 3.2 11.3 0.00 0.00 0.00 86 1010.4
20260507063516 9 135 3.2 12.9 0.00 0.00 0.00 86 1010.7
20260507063016 9 158 1.6 11.3 0.00 0.00 0.00 86 1010.9
20260507062516 9 135 3.2 9.7 0.00 0.00 0.00 87 1011.1
20260507062016 9 158 3.2 11.3 0.00 0.00 0.00 87 1011.1
20260507061516 9 225 1.6 6.4 0.00 0.00 0.00 86 1011.0
20260507061016 9 158 3.2 6.4 0.00 0.00 0.00 86 1010.7
20260507060516 9 135 3.2 8.0 0.00 0.00 0.00 87 1010.7
20260507060016 9 0.0 3.2 0.00 0.00 0.00 87 1011.0
20260507055515 9 135 1.6 4.8 0.00 0.00 0.00 87 1011.2
20260507055016 9 225 1.6 4.8 0.00 0.00 0.00 87 1010.9
20260507054516 9 113 1.6 8.0 0.00 0.00 0.00 86 1011.7
20260507054016 9 158 1.6 4.8 0.00 0.00 0.00 86 1011.8
20260507053515 9 135 1.6 8.0 0.00 0.00 0.00 86 1011.8
20260507053016 9 135 1.6 9.7 0.00 0.00 0.00 86 1012.1
20260507052515 9 135 1.6 6.4 0.00 0.00 0.00 86 1012.3
20260507052016 9 135 1.6 9.7 0.00 0.00 0.00 86 1012.6
20260507051516 9 180 1.6 9.7 0.00 0.00 0.00 86 1012.7
20260507051015 9 225 1.6 6.4 0.00 0.00 0.00 86 1012.9
20260507050516 9 158 1.6 6.4 0.00 0.00 0.00 85 1012.9
20260507050016 9 158 3.2 8.0 0.00 0.00 0.00 85 1013.0
20260507045516 10 135 1.6 8.0 0.00 0.00 0.00 85 1013.1
20260507045016 10 135 3.2 14.5 0.00 0.00 0.00 85 1013.4
20260507044515 10 135 1.6 4.8 0.00 0.00 0.00 86 1013.3
20260507044015 10 158 3.2 12.9 0.00 0.00 0.00 86 1013.5
20260507043515 9 113 1.6 6.4 0.00 0.00 0.00 86 1013.5
20260507043016 9 135 1.6 11.3 0.00 0.00 0.00 87 1013.5
20260507042516 9 113 1.6 8.0 0.00 0.00 0.00 87 1013.5
20260507042017 9 135 1.6 4.8 0.00 0.00 0.00 87 1013.6
20260507041515 9 0.0 3.2 0.00 0.00 0.00 87 1013.7
20260507041016 8 0.0 3.2 0.00 0.00 0.00 87 1013.9
20260507040516 8 135 1.6 3.2 0.00 0.00 0.00 87 1013.9
20260507040016 8 135 1.6 4.8 0.00 0.00 0.00 87 1013.8
20260507035516 8 135 1.6 4.8 0.00 0.00 0.00 87 1013.9
20260507035016 8 135 3.2 4.8 0.00 0.00 0.00 87 1013.9
20260507034516 8 135 1.6 3.2 0.00 0.00 0.00 87 1014.1
20260507034015 8 135 1.6 4.8 0.00 0.00 0.00 87 1014.3
20260507033515 8 158 1.6 4.8 0.00 0.00 0.00 87 1014.4
20260507033016 8 113 1.6 4.8 0.00 0.00 0.00 87 1014.5
20260507032516 8 135 1.6 4.8 0.00 0.00 0.00 87 1014.6
20260507032016 8 135 1.6 4.8 0.00 0.00 0.00 87 1014.6
20260507031516 8 158 1.6 3.2 0.00 0.00 0.00 87 1014.6
20260507031016 8 135 3.2 6.4 0.00 0.00 0.00 87 1014.6
20260507030516 8 135 1.6 4.8 0.00 0.00 0.00 88 1014.7
20260507030016 8 0.0 0.0 0.00 0.00 0.00 88 1014.9
20260507025516 8 113 1.6 4.8 0.00 0.00 0.00 87 1014.9
20260507025016 8 135 1.6 4.8 0.00 0.00 0.00 87 1015.1
20260507024516 8 135 1.6 3.2 0.00 0.00 0.00 87 1015.2
20260507024016 8 135 1.6 4.8 0.00 0.00 0.00 87 1015.4
20260507023516 8 113 1.6 4.8 0.00 0.00 0.00 87 1015.4
20260507023016 8 113 1.6 6.4 0.00 0.00 0.00 87 1015.6
20260507022516 8 0.0 3.2 0.00 0.00 0.00 87 1015.8
20260507022016 8 135 1.6 4.8 0.00 0.00 0.00 87 1015.7
20260507021517 8 0.0 3.2 0.00 0.00 0.00 87 1015.9
20260507021016 8 0.0 4.8 0.00 0.00 0.00 87 1015.9
20260507020517 8 135 1.6 6.4 0.00 0.00 0.00 87 1016.0
20260507020016 8 135 1.6 6.4 0.00 0.00 0.00 87 1015.9
20260507015516 8 158 1.6 8.0 0.00 0.00 0.00 87 1016.0
20260507015017 8 135 3.2 8.0 0.00 0.00 0.00 87 1016.0
20260507014516 8 135 1.6 4.8 0.00 0.00 0.00 87 1016.1
20260507014016 8 135 1.6 6.4 0.00 0.00 0.00 87 1016.1
20260507013516 8 135 1.6 4.8 0.00 0.00 0.00 87 1016.2
20260507013016 8 135 1.6 4.8 0.00 0.00 0.00 86 1016.2
20260507012516 8 113 1.6 6.4 0.00 0.00 0.00 86 1016.3
20260507012016 8 225 1.6 11.3 0.00 0.00 0.00 86 1016.4
20260507011516 8 135 1.6 4.8 0.00 0.00 0.00 86 1016.5
20260507011016 8 135 1.6 9.7 0.00 0.00 0.00 85 1016.5
20260507010516 8 135 1.6 4.8 0.00 0.00 0.00 85 1016.6
20260507010016 8 135 1.6 6.4 0.00 0.00 0.00 85 1016.6
20260507005516 9 135 3.2 8.0 0.00 0.00 0.00 85 1016.6
20260507005016 9 135 1.6 6.4 0.00 0.00 0.00 85 1016.7
20260507004516 9 135 3.2 8.0 0.00 0.00 0.00 85 1016.7
20260507004016 9 135 1.6 6.4 0.00 0.00 0.00 85 1016.8
20260507003516 9 158 1.6 6.4 0.00 0.00 0.00 84 1016.7
20260507003016 9 225 1.6 8.0 0.00 0.00 0.00 84 1016.8
20260507002516 9 158 1.6 6.4 0.00 0.00 0.00 84 1016.7
20260507002016 9 158 1.6 4.8 0.00 0.00 0.00 83 1016.8
20260507001516 9 135 1.6 3.2 0.00 0.00 0.00 83 1016.7
20260507001016 9 135 1.6 9.7 0.00 0.00 0.00 83 1016.7
20260507000516 9 135 1.6 6.4 0.00 0.00 0.00 83 1016.7
20260507000016 9 135 1.6 6.4 0.00 0.00 0.00 83 1016.6
20260506235516 9 158 1.6 8.0 0.00 0.00 0.00 82 1016.6
20260506235016 9 135 1.6 4.8 0.00 0.00 0.00 82 1016.5
20260506234516 10 135 3.2 6.4 0.00 0.00 0.00 81 1016.5
20260506234016 10 135 1.6 8.0 0.00 0.00 0.00 81 1016.5
20260506233516 10 135 3.2 6.4 0.00 0.00 0.00 81 1016.5
20260506233017 10 135 3.2 8.0 0.00 0.00 0.00 81 1016.6
20260506232516 10 135 3.2 11.3 0.00 0.00 0.00 81 1016.6
20260506232016 10 158 3.2 8.0 0.00 0.00 0.00 80 1016.6
20260506231516 10 135 1.6 4.8 0.00 0.00 0.00 80 1016.7
20260506231016 10 135 3.2 11.3 0.00 0.00 0.00 79 1016.6
20260506230516 11 135 3.2 8.0 0.00 0.00 0.00 79 1016.7
20260506230017 11 135 3.2 8.0 0.00 0.00 0.00 79 1016.6
20260506225516 11 158 3.2 8.0 0.00 0.00 0.00 79 1016.6
20260506225016 11 135 3.2 8.0 0.00 0.00 0.00 78 1016.7
20260506224517 11 135 3.2 9.7 0.00 0.00 0.00 78 1016.7
20260506224016 11 158 1.6 6.4 0.00 0.00 0.00 78 1016.7
20260506223516 11 135 3.2 9.7 0.00 0.00 0.00 78 1016.8
20260506223016 11 158 3.2 12.9 0.00 0.00 0.00 78 1016.9
20260506222516 11 180 3.2 11.3 0.00 0.00 0.00 78 1016.9
20260506222016 11 135 3.2 6.4 0.00 0.00 0.00 78 1016.7
20260506221516 12 135 3.2 8.0 0.00 0.00 0.00 78 1016.8
20260506221016 12 135 3.2 11.3 0.00 0.00 0.00 78 1016.7
20260506220516 12 135 3.2 9.7 0.00 0.00 0.00 78 1016.6
20260506220016 12 158 4.8 11.3 0.00 0.00 0.00 77 1016.7
20260506215516 12 158 4.8 16.1 0.00 0.00 0.00 77 1016.7
20260506215016 12 135 3.2 9.7 0.00 0.00 0.00 77 1016.8
20260506214516 12 135 4.8 12.9 0.00 0.00 0.00 76 1016.7
20260506214016 12 113 3.2 8.0 0.00 0.00 0.00 76 1016.7
20260506213516 12 158 3.2 11.3 0.00 0.00 0.00 75 1016.6
20260506213016 13 135 4.8 12.9 0.00 0.00 0.00 75 1016.6
20260506212516 13 158 4.8 9.7 0.00 0.00 0.00 75 1016.6
20260506212016 13 225 4.8 14.5 0.00 0.00 0.00 75 1016.6
20260506211516 14 135 4.8 12.9 0.00 0.00 0.00 74 1016.5
20260506211016 14 158 4.8 12.9 0.00 0.00 0.00 74 1016.3
20260506210516 14 135 6.4 19.3 0.00 0.00 0.00 74 1016.3
20260506210016 15 135 6.4 20.9 0.00 0.00 0.00 74 1016.3
20260506205516 15 158 6.4 19.3 0.00 0.00 0.00 73 1016.4
20260506205016 15 135 4.8 20.9 0.00 0.00 0.00 73 1016.5
20260506204516 15 158 4.8 12.9 0.00 0.00 0.00 72 1016.5
20260506204016 16 135 6.4 16.1 0.00 0.00 0.00 72 1016.5
20260506203516 16 158 6.4 19.3 0.00 0.00 0.00 71 1016.6
20260506203016 16 113 6.4 16.1 0.00 0.00 0.00 71 1016.6
20260506202516 16 158 6.4 27.4 0.00 0.00 0.00 71 1016.5
20260506202016 17 203 6.4 19.3 0.00 0.00 0.00 71 1016.6